Weather History for Waseca, MN

Change the Weather History Date:

Friday, January 3, 2014

  Actual Average Record
Temperature  
Mean Temperature 6 °F -  
Max Temperature 30 °F 22 °F 51 °F (1931)
Min Temperature -16 °F 2 °F -27 °F (1919)
Degree Days  
Heating Degree Days 59    
Moisture  
Dew Point 7 °F    
Average Humidity 78    
Maximum Humidity 86    
Minimum Humidity 67    
Precipitation  
Precipitation 0.00 in - - ()
Sea Level Pressure  
Sea Level Pressure 29.85 in    
Wind  
Wind Speed 15 mph (South)    
Max Wind Speed 34 mph    
Max Gust Speed 43 mph    
Visibility 8 miles    
Events Snow    
Averages and records for this station are not official NWS values.
T = Trace of Precipitation, MM = Missing Value Source: NWS Daily Summary

Daily Weather History Graph

Daily Weather History Graph

Search for Another Location

Airport:

Trip Planner

Search our weather history database for the weather conditions in past years. The results will help you decide how hot, cold, wet, or windy it might be!

Date:

Astronomy

Jan. 03, 2014 Rise Set
Actual Time 7:49 AM CST 4:48 PM CST
Civil Twilight 7:16 AM CST 5:21 PM CST
Nautical Twilight 6:40 AM CST 5:57 PM CST
Astronomical Twilight 6:05 AM CST 6:32 PM CST
Moon 9:09 AM CST (1/3) 8:05 PM CST (1/3)
Length of Visible Light 10h 05m
Length of Day
8h 59m
Waxing Crescent, 8% of the Moon is Illuminated
Jan 3
Waxing Crescent
Jan 7
First Quarter
Jan 15
Full
Jan 23
Last Quarter
Jan 30
New

Hourly Weather History & Observations

Time (CST) Temp. Windchill Dew Point Humidity Pressure Visibility Wind Dir Wind Speed Gust Speed Precip Events Conditions
12:15 AM -14.8 °F -24.8 °F -22.0 °F 70% 30.36 in 10.0 mi South 3.5 mph - N/A   Clear
12:35 AM -14.8 °F -24.8 °F -22.0 °F 70% 30.35 in 10.0 mi SSW 3.5 mph - N/A   Clear
12:54 AM -14.8 °F -27.2 °F -22.0 °F 70% 30.35 in 10.0 mi SSW 4.6 mph - N/A   Clear
1:15 AM -16.6 °F -29.3 °F -22.0 °F 76% 30.34 in 10.0 mi South 4.6 mph - N/A   Clear
1:35 AM -14.8 °F -27.2 °F -20.2 °F 77% 30.34 in 10.0 mi South 4.6 mph - N/A   Clear
1:55 AM -14.8 °F -27.2 °F -20.2 °F 77% 30.32 in 10.0 mi SE 4.6 mph - N/A   Clear
2:14 AM -14.8 °F -24.8 °F -20.2 °F 77% 30.31 in 10.0 mi SE 3.5 mph - N/A   Scattered Clouds
2:35 AM -13.0 °F -22.7 °F -18.4 °F 77% 30.30 in 10.0 mi South 3.5 mph - N/A   Clear
2:55 AM -9.4 °F -26.8 °F -14.8 °F 77% 30.28 in 10.0 mi SSE 9.2 mph - N/A   Scattered Clouds
3:15 AM -5.8 °F -23.4 °F -11.2 °F 77% 30.26 in 10.0 mi SSE 10.4 mph - N/A   Scattered Clouds
3:34 AM -4.0 °F -19.0 °F -9.4 °F 78% 30.25 in 10.0 mi SSE 8.1 mph - N/A   Scattered Clouds
3:55 AM -0.4 °F -17.6 °F -5.8 °F 78% 30.23 in 10.0 mi SSE 11.5 mph - N/A   Scattered Clouds
4:15 AM 1.4 °F -16.9 °F -4.0 °F 78% 30.20 in 10.0 mi SSE 13.8 mph - N/A   Scattered Clouds
4:34 AM 1.4 °F -18.2 °F -4.0 °F 78% 30.20 in 10.0 mi South 16.1 mph 20.7 mph N/A   Scattered Clouds
4:55 AM 3.2 °F -16.5 °F -2.2 °F 78% 30.19 in 10.0 mi South 17.3 mph - N/A   Mostly Cloudy
5:14 AM 3.2 °F -16.5 °F -2.2 °F 78% 30.17 in 10.0 mi SSE 17.3 mph - N/A   Overcast
5:35 AM 3.2 °F -17.6 °F -2.2 °F 78% 30.15 in 10.0 mi South 19.6 mph 25.3 mph N/A   Overcast
5:55 AM 5.0 °F -15.2 °F -2.2 °F 72% 30.14 in 10.0 mi SSE 19.6 mph 24.2 mph N/A   Overcast
6:15 AM 5.0 °F -14.2 °F -2.2 °F 72% 30.13 in 10.0 mi SSE 17.3 mph 26.5 mph N/A   Overcast
6:34 AM 5.0 °F -14.7 °F -2.2 °F 72% 30.11 in 10.0 mi SSE 18.4 mph 25.3 mph N/A   Overcast
6:55 AM 5.0 °F -14.2 °F -0.4 °F 78% 30.09 in 10.0 mi SSE 17.3 mph 23.0 mph N/A   Overcast
7:15 AM 6.8 °F -13.4 °F -0.4 °F 72% 30.08 in 10.0 mi SSE 20.7 mph 26.5 mph N/A   Overcast
7:34 AM 6.8 °F -13.8 °F -0.4 °F 72% 30.05 in 10.0 mi SSE 21.9 mph 27.6 mph N/A   Overcast
7:55 AM 6.8 °F -12.4 °F -0.4 °F 72% 30.05 in 10.0 mi SSE 18.4 mph 27.6 mph N/A   Overcast
8:15 AM 6.8 °F -14.7 °F -0.4 °F 72% 30.02 in 5.0 mi SSE 24.2 mph 28.8 mph N/A   Haze
8:35 AM 6.8 °F -13.8 °F -0.4 °F 72% 30.00 in 7.0 mi SSE 21.9 mph 26.5 mph N/A   Overcast
8:55 AM 8.6 °F -12.3 °F 1.4 °F 73% 29.98 in 7.0 mi SSE 24.2 mph 29.9 mph N/A   Overcast
9:15 AM 12.2 °F -7.9 °F 3.2 °F 67% 29.96 in 5.0 mi South 25.3 mph 34.5 mph N/A   Haze
9:35 AM 12.2 °F -6.7 °F 5.0 °F 73% 29.94 in 4.0 mi South 21.9 mph 29.9 mph N/A   Haze
9:55 AM 14.0 °F -5.8 °F 8.6 °F 79% 29.92 in 4.0 mi SSE 26.5 mph 33.4 mph N/A   Haze
10:14 AM 14.0 °F -4.7 °F 8.6 °F 79% 29.91 in 4.0 mi SSE 23.0 mph 34.5 mph N/A   Haze
10:35 AM 14.0 °F -5.8 °F 8.6 °F 79% 29.88 in 3.0 mi SSE 26.5 mph 35.7 mph N/A   Haze
10:55 AM 15.8 °F -4.1 °F 10.4 °F 79% 29.86 in 2.5 mi South 28.8 mph 35.7 mph N/A   Haze
11:15 AM 17.6 °F -1.3 °F 10.4 °F 73% 29.82 in 2.5 mi South 27.6 mph 38.0 mph N/A   Haze
11:35 AM 17.6 °F -2.5 °F 10.4 °F 73% 29.81 in 3.0 mi South 32.2 mph 42.6 mph N/A   Haze
11:55 AM 17.6 °F -2.8 °F 12.2 °F 79% 29.78 in 1.2 mi South 33.4 mph 42.6 mph N/A   Haze
12:15 PM 19.4 °F 1.1 °F 14.0 °F 80% 29.75 in 2.0 mi South 27.6 mph 40.3 mph N/A   Haze
12:35 PM 19.4 °F 1.8 °F 14.0 °F 80% 29.75 in 3.0 mi South 25.3 mph 38.0 mph N/A   Haze
12:55 PM 19.4 °F -0.6 °F 14.0 °F 80% 29.73 in 5.0 mi South 34.5 mph 40.3 mph N/A   Haze
1:15 PM 19.4 °F 1.1 °F 14.0 °F 80% 29.71 in 5.0 mi South 27.6 mph 36.8 mph N/A   Haze
1:35 PM 19.4 °F 0.2 °F 14.0 °F 80% 29.69 in 5.0 mi South 31.1 mph 35.7 mph N/A   Haze
1:55 PM 19.4 °F 0.5 °F 14.0 °F 80% 29.68 in 5.0 mi South 29.9 mph 36.8 mph N/A   Haze
2:15 PM 21.2 °F 3.0 °F 15.8 °F 80% 29.66 in 4.0 mi South 29.9 mph 40.3 mph N/A   Haze
2:35 PM 21.2 °F 4.2 °F 17.6 °F 86% 29.65 in 7.0 mi South 25.3 mph 38.0 mph N/A   Overcast
2:55 PM 21.2 °F 4.9 °F 17.6 °F 86% 29.64 in 7.0 mi South 23.0 mph 32.2 mph N/A   Overcast
3:14 PM 21.2 °F 3.9 °F 17.6 °F 86% 29.62 in 7.0 mi South 26.5 mph 34.5 mph N/A   Overcast
3:35 PM 23.0 °F 6.3 °F 17.6 °F 80% 29.61 in 7.0 mi South 26.5 mph 36.8 mph N/A   Overcast
3:54 PM 23.0 °F 6.0 °F 19.4 °F 86% 29.61 in 10.0 mi South 27.6 mph 33.4 mph N/A   Mostly Cloudy
4:15 PM 23.0 °F 6.3 °F 19.4 °F 86% 29.59 in 10.0 mi South 26.5 mph 33.4 mph N/A   Scattered Clouds
4:34 PM 23.0 °F 6.6 °F 19.4 °F 86% 29.59 in 10.0 mi South 25.3 mph 32.2 mph N/A   Overcast
4:55 PM 23.0 °F 8.3 °F 19.4 °F 86% 29.58 in 10.0 mi South 19.6 mph 27.6 mph N/A   Scattered Clouds
5:15 PM 23.0 °F 8.3 °F 19.4 °F 86% 29.57 in 10.0 mi South 19.6 mph 26.5 mph N/A   Clear
5:35 PM 23.0 °F 8.0 °F 19.4 °F 86% 29.57 in 10.0 mi South 20.7 mph 26.5 mph N/A   Clear
5:54 PM 23.0 °F 8.0 °F 19.4 °F 86% 29.56 in 10.0 mi South 20.7 mph 27.6 mph N/A   Clear
6:15 PM 23.0 °F 8.0 °F 19.4 °F 86% 29.56 in 10.0 mi South 20.7 mph 27.6 mph N/A   Clear
6:35 PM 23.0 °F 9.2 °F 19.4 °F 86% 29.57 in 10.0 mi South 17.3 mph 24.2 mph N/A   Clear
6:54 PM 23.0 °F 9.2 °F 19.4 °F 86% 29.57 in 10.0 mi South 17.3 mph - N/A   Clear
7:15 PM 26.6 °F 13.4 °F 19.4 °F 74% 29.56 in 10.0 mi South 18.4 mph 24.2 mph N/A   Clear
7:35 PM 26.6 °F 13.8 °F 19.4 °F 74% 29.56 in 10.0 mi South 17.3 mph - N/A   Clear
7:54 PM 26.6 °F 13.1 °F 19.4 °F 74% 29.55 in 10.0 mi South 19.6 mph - N/A   Clear
8:15 PM 26.6 °F 13.1 °F 19.4 °F 74% 29.53 in 10.0 mi South 19.6 mph 26.5 mph N/A   Clear
8:35 PM 26.6 °F 11.7 °F 19.4 °F 74% 29.52 in 10.0 mi South 24.2 mph 28.8 mph N/A   Clear
8:55 PM 26.6 °F 12.7 °F 19.4 °F 74% 29.52 in 10.0 mi South 20.7 mph 31.1 mph N/A   Clear
9:15 PM 26.6 °F 12.7 °F 21.2 °F 80% 29.51 in 10.0 mi South 20.7 mph 27.6 mph N/A   Clear
9:35 PM 26.6 °F 13.1 °F 21.2 °F 80% 29.51 in 10.0 mi South 19.6 mph 24.2 mph N/A   Clear
9:55 PM 26.6 °F 13.8 °F 21.2 °F 80% 29.51 in 10.0 mi South 17.3 mph 24.2 mph N/A   Clear
10:14 PM 26.6 °F 13.1 °F 21.2 °F 80% 29.51 in 10.0 mi South 19.6 mph 27.6 mph N/A   Clear
10:35 PM 26.6 °F 13.1 °F 21.2 °F 80% 29.50 in 10.0 mi South 19.6 mph 25.3 mph N/A   Clear
10:55 PM 28.4 °F 15.4 °F 23.0 °F 80% 29.50 in 10.0 mi South 19.6 mph 24.2 mph N/A   Scattered Clouds
11:14 PM 28.4 °F 15.8 °F 23.0 °F 80% 29.49 in 10.0 mi South 18.4 mph - N/A   Mostly Cloudy
11:34 PM 28.4 °F 15.8 °F 23.0 °F 80% 29.49 in 10.0 mi South 18.4 mph 25.3 mph N/A   Overcast
11:55 PM 30.2 °F 17.1 °F 24.8 °F 80% 29.49 in 5.0 mi South 21.9 mph 25.3 mph N/A Snow Light Snow